Home > Weather > Easter Island > Past weeks

Flag for Chile Past Weather in Easter Island, Chile — Yesterday and Last 2 Weeks

Now
66 °F

Scattered clouds.


Feels Like: 66 °F
Forecast: 65 / 71 °F
Wind: 10 mph from Southeast

Location: Isla De Pascua

Current Time: May 30, 2016 at 8:31:59 AM

Latest Report: May 30, 2016 at 8:00 AM


Visibility: N/A

Pressure: 30.15 "Hg

Humidity: 73%

Dew Point: 57 °F

Location of Easter IslandLocation

Past Weather in Easter Island — Graph

°F

Easter Island Temperature Yesterday

Maximum temperature yesterday: 70 °F (at 2:00 PM)
Minimum temperature yesterday: 61 °F (at 2:00 AM)
Average temperature yesterday: 66 °F

High & Low Weather Summary for the Past Weeks

 TemperatureHumidityPressure
High75 °F (May 18, 2:00 PM)100% (May 18, 7:00 PM)30.15 "Hg (May 18, 7:00 PM)
Low59 °F (May 15, 8:00 AM)46% (May 20, 12:00 PM)29.71 "Hg (May 24, 4:00 PM)
Average68 °F74%30.00 "Hg
* Reported May 15 7:00 AM — May 30 7:00 AM, Easter Island, Weather by CustomWeather, © 2016

Note: Actual official high and low records may vary slightly from our data, if they occured in-between our weather recording intervals... More about our weather records

Advertising

Easter Island Weather History for the Previous 24 Hours

Scroll right to see more
 ConditionsComfort  
Time TempWeatherWind HumidityBarometerVisibility
7:00 AM
Mon, May 30
64 °FPassing clouds.10 mph83%30.12 "HgN/A
6:00 AM64 °FPassing clouds.10 mph78%30.09 "HgN/A
5:00 AM66 °FPassing clouds.10 mph78%30.09 "HgN/A
4:00 AM64 °FPassing clouds.10 mph83%30.09 "HgN/A
3:00 AM64 °FPassing clouds.10 mph83%30.09 "HgN/A
2:00 AM64 °FPassing clouds.12 mph83%30.12 "HgN/A
1:00 AM64 °FPassing clouds.13 mph83%30.12 "HgN/A
12:00 AM64 °FPassing clouds.15 mph83%30.12 "HgN/A
11:00 PM
Sun, May 29
66 °FPassing clouds.17 mph78%30.12 "HgN/A
10:00 PM66 °FPassing clouds.21 mph83%30.09 "HgN/A
9:00 PM66 °FPassing clouds.25 mph78%30.07 "HgN/A
8:00 PM66 °FPassing clouds.26 mph78%30.07 "HgN/A
7:00 PM66 °FPartly cloudy.25 mph83%30.07 "HgN/A
6:00 PM66 °FPartly sunny.28 mph78%30.04 "HgN/A
5:00 PM68 °FPartly sunny.25 mph78%30.04 "HgN/A
4:00 PM68 °FPartly sunny.26 mph78%30.01 "HgN/A
3:00 PM70 °FBroken clouds.28 mph78%30.01 "HgN/A
2:00 PM70 °FPartly sunny.23 mph78%30.01 "HgN/A
1:00 PM68 °FBroken clouds.23 mph83%30.07 "HgN/A
12:00 PM68 °FScattered clouds.23 mph83%30.07 "HgN/A
11:00 AM68 °FBroken clouds.24 mph83%30.07 "HgN/A
10:00 AM66 °FMostly cloudy.26 mph83%30.07 "HgN/A
9:00 AM64 °FMostly cloudy.26 mph94%30.04 "HgN/A
8:00 AM64 °FSprinkles. Partly sunny.23 mph88%30.01 "HgN/A
Weather by CustomWeather, © 2016

See weather overviewHow to use our weather pages